Regional Weather Roundup
Issued by NWS Lake Charles, LA

Home | Current Version | Previous Version | Text Only | Print | Product List | Glossary On
Versions: 1 2 3 4 5 6 7 8 9 10 11 12 13 14 15 16 17 18 19 20 21 22 23 24 25 26 27
000
ASUS44 KLCH 040010
RWRLCH
REGIONAL WEATHER ROUNDUP
NATIONAL WEATHER SERVICE LAKE CHARLES LA
600 PM CST SAT DEC 03 2016

Note: "fair" indicates few or no clouds below 12,000 feet with no
significant weather and/or obstructions to visibility.


ACROSS SOUTHEAST TEXAS

CITY           SKY/WX    TMP DP  RH WIND       PRES   REMARKS
BEAUMONT       HVY RAIN  55  53  93 NE9       29.84F FOG
BEAUMONT CITY  LGT RAIN  54  53  94 NE6       29.87S
ORANGE         RAIN     N/A N/A N/A NE12      29.85F
JASPER         DRIZZLE   52  50  94 N3        29.94R
$$

ACROSS CENTRAL LOUISIANA

CITY           SKY/WX    TMP DP  RH WIND       PRES   REMARKS
LEESVILLE      RAIN      48  48 100 E9        29.90S FOG
FULLERTON      RAIN      48  47  96 VRB3      29.90F FOG
ALEXANDRIA INT HVY RAIN  48  48 100 N5        29.95R FOG
ESLER FIELD    HVY RAIN  48  48 100 NE5       29.96R FOG
DERIDDER       HVY RAIN  49  48  95 E7        29.90F
OAKDALE        LGT RAIN  54  52  95 NE6       29.90F
OPELOUSAS      CLOUDY    55  52  92 E13       29.90F
$$

ACROSS SOUTHWEST AND SOUTH CENTRAL LOUISIANA

CITY           SKY/WX    TMP DP  RH WIND       PRES   REMARKS
SULPHUR        TSTM      56  55  97 NE12G17   29.87S
LAKE CHARLES   LGT RAIN  54  54 100 NE13      29.88F
CHENNAULT INT  RAIN      52  52 100 N7        29.89F FOG
CAMERON PHI    NOT AVBL
DEQUINCY       LGT RAIN  52  51  99 E5        29.89R
JENNINGS       LGT RAIN  57  55  94 E6        29.87R
LAFAYETTE      CLOUDY    63  57  81 SE7       29.91R
NEW IBERIA     CLOUDY    62  56  80 E8        29.92R
ABBEVILLE      NOT AVBL
PATTERSON      LGT RAIN N/A N/A N/A E13       29.94R
SALT POINT     NOT AVBL
$$

SELECTED SITES ACROSS THE REGION

CITY           SKY/WX    TMP DP  RH WIND       PRES   REMARKS
HOUSTON BUSH   HVY RAIN  53  51  93 N10       29.90R FOG
HOUSTON HOBBY  CLOUDY    55  53  93 N14       29.89R
GALVESTON      LGT RAIN N/A N/A N/A N17       29.86S
COLLEGE STAT   LGT RAIN  50  49  96 NE14      29.90F
CONROE         LGT RAIN  51  50  96 N6        29.90F
HUNTSVILLE     LGT RAIN  50  48  93 VRB5      29.92S
LUFKIN         CLOUDY    48  47  96 N7        29.93S
SHREVEPORT     LGT RAIN  49  47  93 E9        29.99S FOG
MONROE         LGT RAIN  48  46  93 E8G16     30.05S FOG
NATCHEZ MS     CLOUDY    48  43  81 E14G22    29.96F
BATON ROUGE    CLOUDY    59  49  69 E17       29.96S
N.O. INTL ARPT LGT RAIN  61  55  81 E20G30    29.99S
SLIDELL        CLOUDY    60  41  49 E12G20    30.02F
$$

MARINE REPORTS

STATION/POSITION TIME  SKY/WX   TEMP    WIND        PRES    VSBY
                                AIR SEA DIR/SP/G
                 (UTC)          (F)     (DEG/KT/KT) (MB)    (MI)
BUOY 30 S HIGH I 2350            63 68   10/ 16/ 17 1009.7R
WVE H/P(F/S)=  6/ 8

SEA RIM ST PARK  0000            56      40/ 10/ 13 1011.5R
PORT ARTHUR      2348               62   40/  5/ 10 1010.5F
SABINE PASS N    2342            56 64   20/ 12/ 18 1011.2F
TEXAS POINT      NOT AVBL
CALCASIEU PASS   2342            56 61   60/ 14/ 20   N/A
LK CHARLES BEACH 2342            53 60              1012.2F
MARSH ISLAND     2300            67                   N/A
FRESH WATER LOCK 2342            65 61   90/ 10/ 15 1012.3R
AMERADA PASS     2342            63 61   80/ 11/ 15 1013.3R
$$




USA.gov is the U.S. government's official web portal to all federal, state and local government web resources and services.